CES5541 ZSJN-ZSYT

Flight info

Callsign CES5541
Flight time N/A
Altitude 29100
Route DYN81D DYN W4 HCH HCH82A
Aircraft B738/M-SDE2E3FGHIRWXY/LB1

Departure

Time 2026-04-25 09:35
Airport Jinan Yaoqiang International Airport (ZSJN)

Arrival

Time N/A
Airport Yantai Penglai International Airport (ZSYT)
Time Latitude Longitude Altitude Speed Heading
2026-04-25 09:09 36.85104 117.20890 84 ft 0 kts 271°
2026-04-25 09:20 36.85104 117.20898 84 ft 2 kts 271°
2026-04-25 09:20 36.85104 117.20916 84 ft 2 kts 268°
2026-04-25 09:20 36.85104 117.20935 84 ft 2 kts 269°
2026-04-25 09:21 36.85104 117.20953 84 ft 2 kts 269°
2026-04-25 09:21 36.85104 117.20971 84 ft 0 kts 269°
2026-04-25 09:21 36.85104 117.20978 84 ft 0 kts 316°
2026-04-25 09:21 36.85100 117.20982 84 ft 0 kts 359°
2026-04-25 09:22 36.85093 117.20981 84 ft 0 kts
2026-04-25 09:23 36.85096 117.20982 84 ft 2 kts
2026-04-25 09:24 36.85146 117.20982 84 ft 11 kts
2026-04-25 09:24 36.85229 117.20980 84 ft 11 kts 359°
2026-04-25 09:24 36.85304 117.20981 84 ft 10 kts
2026-04-25 09:24 36.85358 117.21015 84 ft 8 kts 65°
2026-04-25 09:25 36.85389 117.21098 84 ft 14 kts 65°
2026-04-25 09:25 36.85433 117.21219 84 ft 14 kts 66°
2026-04-25 09:25 36.85516 117.21267 84 ft 14 kts
2026-04-25 09:25 36.85612 117.21267 84 ft 13 kts
2026-04-25 09:26 36.85719 117.21269 84 ft 18 kts 359°
2026-04-25 09:26 36.85866 117.21269 84 ft 23 kts 360°
2026-04-25 09:26 36.86033 117.21269 84 ft 23 kts 359°
2026-04-25 09:26 36.86154 117.21312 84 ft 15 kts 101°
2026-04-25 09:27 36.86194 117.21371 84 ft 12 kts
2026-04-25 09:27 36.86282 117.21371 84 ft 13 kts 359°
2026-04-25 09:27 36.86398 117.21371 84 ft 19 kts
2026-04-25 09:27 36.86555 117.21371 84 ft 25 kts 360°
2026-04-25 09:28 36.86735 117.21373 84 ft 23 kts 360°
2026-04-25 09:28 36.86894 117.21371 84 ft 21 kts
2026-04-25 09:28 36.87042 117.21374 84 ft 20 kts 359°
2026-04-25 09:28 36.87186 117.21373 84 ft 19 kts
2026-04-25 09:29 36.87321 117.21376 84 ft 14 kts 20°
2026-04-25 09:29 36.87340 117.21450 84 ft 8 kts 91°
2026-04-25 09:29 36.87340 117.21471 84 ft 0 kts 90°
2026-04-25 09:32 36.87340 117.21478 84 ft 3 kts 90°
2026-04-25 09:32 36.87340 117.21536 84 ft 9 kts 90°
2026-04-25 09:32 36.87305 117.21596 84 ft 10 kts 160°
2026-04-25 09:32 36.87227 117.21596 83 ft 10 kts 181°
2026-04-25 09:33 36.87223 117.21596 83 ft 0 kts 181°
2026-04-25 09:34 36.87221 117.21596 83 ft 1 kts 181°
2026-04-25 09:34 36.87058 117.21596 83 ft 60 kts 180°
2026-04-25 09:34 36.86374 117.21595 83 ft 131 kts 180°
2026-04-25 09:35 36.85276 117.21600 245 ft 173 kts 180°
2026-04-25 09:35 36.84074 117.21623 1024 ft 176 kts 181°
2026-04-25 09:35 36.82893 117.21635 1986 ft 173 kts 182°
2026-04-25 09:35 36.81659 117.21611 2598 ft 184 kts 182°
2026-04-25 09:36 36.80327 117.21596 3159 ft 198 kts 182°
2026-04-25 09:36 36.78876 117.21596 3668 ft 217 kts 181°
2026-04-25 09:36 36.77297 117.21854 4194 ft 238 kts 164°
2026-04-25 09:36 36.75830 117.22894 4814 ft 257 kts 141°
2026-04-25 09:37 36.74692 117.24718 5504 ft 273 kts 120°
2026-04-25 09:37 36.74079 117.26952 6363 ft 281 kts 101°
2026-04-25 09:37 36.74204 117.29417 7152 ft 291 kts 73°
2026-04-25 09:37 36.75118 117.31661 8038 ft 293 kts 58°
2026-04-25 09:38 36.76267 117.33768 8911 ft 295 kts 54°
2026-04-25 09:38 36.77454 117.35824 9739 ft 297 kts 54°
2026-04-25 09:38 36.78655 117.37936 10530 ft 301 kts 54°
2026-04-25 09:38 36.79868 117.40127 11038 ft 315 kts 55°
2026-04-25 09:39 36.81126 117.42445 11537 ft 330 kts 55°
2026-04-25 09:39 36.82435 117.44878 12047 ft 344 kts 55°
2026-04-25 09:39 36.83791 117.47409 12526 ft 359 kts 55°
2026-04-25 09:40 36.86607 117.52669 14140 ft 368 kts 54°
2026-04-25 09:40 36.88014 117.55297 15003 ft 371 kts 54°
2026-04-25 09:40 36.89460 117.58001 15799 ft 376 kts 54°
2026-04-25 09:40 36.90918 117.60726 16611 ft 379 kts 54°
2026-04-25 09:41 36.92387 117.63476 17394 ft 383 kts 54°
2026-04-25 09:41 36.93870 117.66251 18138 ft 387 kts 54°
2026-04-25 09:41 36.95356 117.69038 18923 ft 390 kts 54°
2026-04-25 09:41 36.96858 117.71857 19673 ft 392 kts 54°
2026-04-25 09:42 36.98382 117.74719 20389 ft 396 kts 54°
2026-04-25 09:42 36.99916 117.77599 21158 ft 397 kts 54°
2026-04-25 09:42 37.01441 117.80466 21766 ft 402 kts 54°
2026-04-25 09:42 37.03005 117.83407 22508 ft 403 kts 53°
2026-04-25 09:43 37.04566 117.86349 23098 ft 408 kts 53°
2026-04-25 09:43 37.06123 117.89285 23799 ft 409 kts 53°
2026-04-25 09:43 37.07703 117.92268 24379 ft 413 kts 52°
2026-04-25 09:43 37.09281 117.95247 24950 ft 417 kts 52°
2026-04-25 09:44 37.10901 117.98306 25469 ft 421 kts 52°
2026-04-25 09:44 37.12515 118.01357 26031 ft 424 kts 52°
2026-04-25 09:44 37.14145 118.04448 26687 ft 425 kts 52°
2026-04-25 09:44 37.15769 118.07531 27471 ft 422 kts 52°
2026-04-25 09:45 37.17377 118.10590 28212 ft 419 kts 52°
2026-04-25 09:45 37.18970 118.13621 28853 ft 418 kts 52°
2026-04-25 09:45 37.20571 118.16664 29010 ft 421 kts 52°
2026-04-25 09:45 37.22190 118.19746 29018 ft 418 kts 52°
2026-04-25 09:46 37.25188 118.25462 29018 ft 415 kts 52°
2026-04-25 09:46 37.28365 118.31526 29024 ft 417 kts 51°
2026-04-25 09:47 37.31544 118.37607 29020 ft 416 kts 52°
2026-04-25 09:47 37.34719 118.43689 29021 ft 417 kts 52°
2026-04-25 09:48 37.37895 118.49785 29021 ft 417 kts 52°
2026-04-25 09:48 37.41078 118.55908 29018 ft 418 kts 52°
2026-04-25 09:49 37.44247 118.62015 29016 ft 418 kts 52°
2026-04-25 09:49 37.47425 118.68151 29019 ft 416 kts 52°
2026-04-25 09:50 37.50552 118.74239 29017 ft 418 kts 54°
2026-04-25 09:50 37.52875 118.81028 29013 ft 429 kts 72°
2026-04-25 09:51 37.53778 118.88481 29015 ft 434 kts 79°
2026-04-25 09:51 37.54308 118.96087 29011 ft 436 kts 81°
2026-04-25 09:52 37.54789 119.03645 29014 ft 434 kts 81°
2026-04-25 09:52 37.55296 119.11232 29019 ft 435 kts 80°
2026-04-25 09:53 37.55821 119.18783 29021 ft 434 kts 80°
2026-04-25 09:53 37.56356 119.26342 29025 ft 433 kts 80°
2026-04-25 09:54 37.56892 119.33891 28981 ft 434 kts 80°
2026-04-25 09:54 37.57160 119.37676 28569 ft 436 kts 80°
2026-04-25 09:54 37.57428 119.41467 27905 ft 435 kts 81°
2026-04-25 09:55 37.57696 119.45289 27231 ft 433 kts 81°
2026-04-25 09:55 37.57956 119.49011 26572 ft 432 kts 81°
2026-04-25 09:55 37.58220 119.52797 25911 ft 434 kts 81°
2026-04-25 09:55 37.58478 119.56554 25259 ft 435 kts 81°
2026-04-25 09:56 37.58734 119.60367 24600 ft 435 kts 81°
2026-04-25 09:56 37.58982 119.64158 23929 ft 432 kts 82°
2026-04-25 09:56 37.59229 119.67890 23283 ft 429 kts 82°
2026-04-25 09:56 37.59492 119.71639 22643 ft 426 kts 82°
2026-04-25 09:57 37.59766 119.75334 21992 ft 423 kts 82°
2026-04-25 09:57 37.60045 119.78988 21369 ft 420 kts 82°
2026-04-25 09:57 37.60323 119.82600 20742 ft 417 kts 82°
2026-04-25 09:57 37.60600 119.86224 20113 ft 414 kts 82°
2026-04-25 09:58 37.60872 119.89821 19480 ft 411 kts 83°
2026-04-25 09:58 37.61141 119.93403 18849 ft 408 kts 83°
2026-04-25 09:58 37.61406 119.96951 18215 ft 405 kts 83°
2026-04-25 09:58 37.61665 120.00455 17572 ft 402 kts 83°
2026-04-25 09:59 37.61922 120.03954 16979 ft 399 kts 83°
2026-04-25 09:59 37.62172 120.07378 16357 ft 396 kts 84°
2026-04-25 09:59 37.62424 120.10841 15726 ft 393 kts 84°
2026-04-25 09:59 37.62670 120.14241 15249 ft 385 kts 84°
2026-04-25 10:00 37.62907 120.17546 15177 ft 376 kts 84°
2026-04-25 10:00 37.63144 120.20846 15166 ft 380 kts 84°
2026-04-25 10:00 37.63381 120.24160 15163 ft 378 kts 84°
2026-04-25 10:00 37.63615 120.27462 15165 ft 378 kts 84°
2026-04-25 10:01 37.63849 120.30761 15172 ft 378 kts 84°
2026-04-25 10:01 37.64083 120.34075 15162 ft 379 kts 84°
2026-04-25 10:01 37.64162 120.35188 15162 ft 379 kts 85°